Location: Gugi
(45.4667°N, 11.1000°E)
Time: 12:47:43
(UTC+00:00)

YAOGAN 1 - Pass Details

Date: 17 November 2019
Orbit: 619 x 621 km, 98.0° (Epoch: 13 December)

Event Time Altitude Azimuth Distance (km) Brightness Sun altitude
Rises 17:21:48 0° 155° (SSE) 2,885 5.8 -17.1°
Reaches altitude 10° 17:24:00 10° 152° (SSE) 1,984 5.0 -17.5°
Maximum altitude 17:28:14 59° 73° (ENE) 720 2.5 -18.2°
Drops below altitude 10° 17:32:31 10° 354° (N) 1,998 5.1 -18.9°
Sets 17:34:44 0° 351° (N) 2,909 6.0 -19.3°
